Regional Weather Roundup
Issued by NWS

Home | Current Version | Previous Version | Text Only | Print | Product List | Glossary Off
Versions: 1 2 3 4 5 6 7 8 9 10 11 12 13 14 15 16 17 18 19 20 21 22 23 24 25 26 27 28 29 30 31 32 33 34 35 36 37 38 39 40 41 42 43 44 45 46 47 48 49 50

000
ASUS43 KLSX 280607
RWRMO

WEATHER SUMMARY FOR MISSOURI
NATIONAL WEATHER SERVICE SPRINGFIELD MO
100 AM CDT THU APR 28 2016

NOTE: "FAIR" INDICATES FEW OR NO CLOUDS BELOW 12,000 FEET WITH NO
       SIGNIFICANT WEATHER AND/OR OBSTRUCTIONS TO VISIBILITY.
       CURRENT SKY AND/OR WEATHER CONDITIONS ARE NOT AVAILABLE FOR
       CHILLICOTHE AND FARMINGTON.

MOZ001>031-035>038-043-044-053-054-280700-
...NORTHERN AND WESTERN MISSOURI...

CITY           SKY/WX    TMP DP  RH WIND       PRES   REMARKS
KANSAS CTY INT CLEAR     50  39  66 W15       29.71R
6HR MIN TEMP:  49; 6HR MAX TEMP:  59;

KANSAS C DTWN  CLEAR     53  42  66 W7        29.72R
6HR MIN TEMP:  53; 6HR MAX TEMP:  63;

LEE`S SUMMIT   CLEAR     53  45  74 W10       29.73R
6HR MIN TEMP:  53; 6HR MAX TEMP:  63;

ST JOSEPH      CLOUDY    49  40  71 W14G23    29.69R
6HR MIN TEMP:  49; 6HR MAX TEMP:  57;

CHILLICOTHE      N/A     47  50 100 CALM      29.70S
6HR MIN TEMP:  47; 6HR MAX TEMP:  57;

KIRKSVILLE     CLEAR     48  46  93 SE3       29.71F
6HR MIN TEMP:  48; 6HR MAX TEMP:  66; 6HR PCP:  0.11;


$$
MOZ066>068-077>081-088>096-101>105-280700-
...SOUTHWEST MISSOURI...

CITY           SKY/WX    TMP DP  RH WIND       PRES   REMARKS
SPRINGFIELD    PTCLDY    51  46  83 SW6       29.77R
6HR MIN TEMP:  51; 6HR MAX TEMP:  72;

JOPLIN         CLEAR     52  49  89 W6        29.80R
6HR MIN TEMP:  52; 6HR MAX TEMP:  69;


$$
MOZ032>034-039>042-045>050-055>058-069>072-280700-
...CENTRAL MISSOURI...

CITY           SKY/WX    TMP DP  RH WIND       PRES   REMARKS
COLUMBIA       CLEAR     56  51  84 CALM      29.74R
6HR MIN TEMP:  56; 6HR MAX TEMP:  74;

JEFFERSON CITY CLEAR     59  53  80 CALM      29.74R
6HR MIN TEMP:  59; 6HR MAX TEMP:  76;

ROLLA          CLEAR     54  50  86 W6        29.74R
6HR MIN TEMP:  54; 6HR MAX TEMP:  72; 6HR PCP:  0.02;

SEDALIA        CLEAR     55  51  86 S5        29.74R
6HR MIN TEMP:  53; 6HR MAX TEMP:  71; 6HR PCP: TRACE;

WHITEMAN AFB   CLEAR     51  51 100 S6        29.72R
WARRENSBURG    CLEAR     52  46  82 S5        29.73R
OSAGE BEACH    CLEAR     55  45  67 SW3       29.76R

$$
MOZ051-052-059>065-280700-
...EAST CENTRAL MISSOURI...

CITY           SKY/WX    TMP DP  RH WIND       PRES   REMARKS
ST LOUIS INTL  CLEAR     66  53  63 W14       29.71R
6HR MIN TEMP:  66; 6HR MAX TEMP:  75;

SPIRIT OF STL  CLEAR     64  54  69 W12       29.71R
6HR MIN TEMP:  63; 6HR MAX TEMP:  76; 6HR PCP:  0.01;

ST CHARLES     CLEAR     63  55  75 NW20      29.69R
6HR MIN TEMP:  61; 6HR MAX TEMP:  74; 6HR PCP:  0.31;


$$
MOZ072>076-082>087-097>100-106>115-280700-
...SOUTH CENTRAL AND SOUTHEAST MISSOURI...

CITY           SKY/WX    TMP DP  RH WIND       PRES   REMARKS
CAPE GIRARDEAU CLOUDY    68  63  84 S9        29.71R
6HR MIN TEMP:  66; 6HR MAX TEMP:  74;

FARMINGTON     PTCLDY    62  57  83 W6        29.75R
6HR MIN TEMP:  61; 6HR MAX TEMP:  73;

POPLAR BLUFF   CLEAR     67  63  87 SW7       29.72R
6HR MIN TEMP:  67; 6HR MAX TEMP:  76;

WEST PLAINS    CLEAR     59  49  69 MISG      29.79R
6HR MIN TEMP:  59; 6HR MAX TEMP:  70;


$$



USA.gov is the U.S. government's official web portal to all federal, state and local government web resources and services.